Location: Newark
(46.1292°N, 1.0086°W)
Time: 04:19:49
(UTC+00:00)

Transit 4A - Pass Details

Date: 19 November 2019
Orbit: 870 x 975 km, 66.8° (Epoch: 09 December)

Event Time Altitude Azimuth Distance (km) Brightness Sun altitude
Exits shadow 03:34:49 11° 9° (N) 2,474 10.3 -37.0°
Maximum altitude 03:35:30 12° 16° (NNE) 2,457 10.3 -36.8°
Drops below altitude 10° 03:37:31 10° 36° (NE) 2,565 10.6 -36.5°
Sets 03:42:03 0° 68° (ENE) 3,482 11.9 -35.7°
